DW1973 Weather Reports


Display with metric or nautical units.
time (UTC)temp
F
wind
direction
speed
MPH
gust
MPH
rain 1hr
in
rain 24hr
in
rain mn
in
humidity
%
barometer
mb
20260505173446 55 17 2.0 5.0 0.00 0.07 0.07 41 1009.1
20260505172915 55 22 3.0 8.0 0.00 0.07 0.07 42 1009.1
20260505172422 55 30 3.0 8.0 0.00 0.07 0.07 41 1009.1
20260505171929 55 28 3.0 6.0 0.00 0.07 0.07 44 1009.1
20260505171421 55 24 4.0 6.0 0.00 0.07 0.07 42 1009.0
20260505170931 55 17 2.0 5.0 0.00 0.07 0.07 45 1008.9
20260505170420 55 24 3.0 5.0 0.00 0.07 0.07 46 1009.0
20260505165931 55 19 3.0 8.0 0.00 0.07 0.07 48 1008.8
20260505165421 55 34 3.0 9.0 0.00 0.07 0.07 48 1008.9
20260505164932 55 42 3.0 9.0 0.00 0.07 0.07 48 1008.8
20260505164457 55 54 3.0 7.0 0.00 0.07 0.07 50 1008.7
20260505163947 55 46 2.0 6.0 0.00 0.07 0.07 55 1008.7
20260505163416 54 38 1.0 6.0 0.00 0.07 0.07 57 1008.9
20260505162948 54 25 3.0 7.0 0.00 0.07 0.07 56 1009.2
20260505162417 54 239 3.0 7.0 0.00 0.07 0.07 56 1009.1
20260505161924 54 247 3.0 6.0 0.00 0.07 0.07 53 1008.9
20260505161416 54 278 3.0 6.0 0.00 0.07 0.07 57 1009.0
20260505160925 54 271 1.0 6.0 0.00 0.07 0.07 52 1008.8
20260505160432 53 42 3.0 6.0 0.00 0.07 0.07 54 1008.9
20260505152941 51 38 3.0 6.0 0.00 0.07 0.07 62 1008.7
20260505152428 51 24 1.0 4.0 0.00 0.07 0.07 64 1008.5
20260505151915 50 24 2.0 4.0 0.00 0.07 0.07 65 1008.5
20260505151456 50 26 2.0 4.0 0.00 0.07 0.07 65 1008.8
20260505150944 50 19 2.0 5.0 0.00 0.07 0.07 69 1008.7
20260505150431 50 29 2.0 5.0 0.00 0.07 0.07 72 1008.5
20260505140422 45 28 0.0 0.0 0.03 0.07 0.07 89 1009.2
20260505124917 45 360 1.0 3.0 0.03 0.03 0.03 82 1008.6
20260505124430 45 360 1.0 3.0 0.02 0.02 0.02 81 1008.9
20260505123916 45 360 1.0 2.0 0.01 0.01 0.01 80 1008.9
20260505123425 46 360 1.0 2.0 0.01 0.01 0.01 78 1008.9
20260505122936 46 360 0.0 2.0 0.01 0.01 0.01 77 1008.5
20260505122425 46 360 0.0 2.0 0.00 0.00 0.00 75 1008.3
20260505121930 47 42 0.0 3.0 0.00 0.00 0.00 74 1008.4
20260505121458 47 360 1.0 3.0 0.00 0.00 0.00 72 1008.7
20260505120946 48 360 2.0 4.0 0.00 0.00 0.00 70 1009.1
20260505120414 48 17 2.0 4.0 0.00 0.00 0.00 67 1009.1
20260505115924 49 360 2.0 5.0 0.00 0.00 0.00 65 1009.0
20260505115432 49 28 2.0 5.0 0.00 0.00 0.00 62 1008.7
20260505114918 50 30 2.0 4.0 0.00 0.00 0.00 61 1008.2
20260505114430 50 26 2.0 4.0 0.00 0.00 0.00 58 1007.8
20260505113917 51 360 2.0 5.0 0.00 0.00 0.00 57 1007.7
20260505113426 51 30 2.0 5.0 0.00 0.00 0.00 56 1007.7
20260505112917 51 26 3.0 4.0 0.00 0.00 0.00 56 1007.6
20260505112452 51 5 2.0 5.0 0.00 0.00 0.00 56 1007.3
20260505111919 51 26 3.0 5.0 0.00 0.00 0.00 56 1006.9
20260505111432 51 28 2.0 5.0 0.00 0.00 0.00 57 1006.7
20260505110933 51 28 2.0 6.0 0.00 0.00 0.00 57 1006.3
20260505110441 52 26 3.0 6.0 0.00 0.00 0.00 57 1006.1
20260505101930 53 9 1.0 3.0 0.00 0.00 0.00 55 1005.6
20260505101422 53 360 0.0 5.0 0.00 0.00 0.00 55 1005.8
20260505100930 53 360 2.0 5.0 0.00 0.00 0.00 54 1005.7
20260505100420 53 9 3.0 5.0 0.00 0.00 0.00 54 1005.5
20260505095929 53 25 2.0 4.0 0.00 0.00 0.00 55 1005.5
20260505095436 53 9 2.0 4.0 0.00 0.00 0.00 55 1005.7
20260505094941 53 28 2.0 4.0 0.00 0.00 0.00 54 1005.8
20260505094432 53 9 2.0 4.0 0.00 0.00 0.00 54 1005.8
20260505093920 54 5 1.0 4.0 0.00 0.00 0.00 55 1005.8
20260505093426 54 9 2.0 6.0 0.00 0.00 0.00 55 1005.6
20260505092918 54 25 3.0 6.0 0.00 0.00 0.00 56 1005.8
20260505092455 54 23 2.0 4.0 0.00 0.00 0.00 56 1005.9
20260505091922 55 20 1.0 4.0 0.00 0.00 0.00 58 1005.6
20260505091414 55 18 2.0 3.0 0.00 0.00 0.00 56 1005.6
20260505090922 56 17 1.0 3.0 0.00 0.00 0.00 54 1005.5
20260505090431 56 17 1.0 3.0 0.00 0.00 0.00 54 1005.4
20260505085936 56 19 1.0 3.0 0.00 0.00 0.00 54 1005.3
20260505085452 56 18 1.0 3.0 0.00 0.00 0.00 53 1005.2
20260505084920 56 18 2.0 3.0 0.00 0.00 0.00 52 1004.9
20260505084429 56 18 1.0 4.0 0.00 0.00 0.00 52 1004.8
20260505083936 56 17 3.0 4.0 0.00 0.00 0.00 52 1004.6
20260505083442 56 19 2.0 4.0 0.00 0.00 0.00 52 1004.5
20260505082925 56 19 2.0 3.0 0.00 0.00 0.00 52 1004.2
20260505082433 57 19 1.0 3.0 0.00 0.00 0.00 51 1004.0
20260505081920 57 19 2.0 3.0 0.00 0.00 0.00 51 1003.7
20260505081431 57 22 1.0 3.0 0.00 0.00 0.00 51 1003.6
20260505080919 57 19 2.0 4.0 0.00 0.00 0.00 51 1003.8
20260505080428 57 26 2.0 4.0 0.00 0.00 0.00 51 1003.6
20260505075916 57 28 1.0 5.0 0.00 0.00 0.00 50 1003.6
20260505075423 57 24 1.0 5.0 0.00 0.00 0.00 50 1003.5
20260505074930 57 284 2.0 4.0 0.00 0.00 0.00 50 1003.3
20260505074421 57 288 2.0 3.0 0.00 0.00 0.00 50 1003.3
20260505073928 57 275 2.0 3.0 0.00 0.00 0.00 50 1003.3
20260505073438 58 272 0.0 4.0 0.00 0.00 0.00 51 1003.4
20260505072945 58 269 2.0 4.0 0.00 0.00 0.00 50 1003.2
20260505072431 58 285 2.0 4.0 0.00 0.00 0.00 50 1003.0
20260505071918 58 281 2.0 3.0 0.00 0.00 0.00 50 1003.0
20260505071431 58 296 1.0 3.0 0.00 0.00 0.00 50 1002.7
20260505070921 58 298 0.0 3.0 0.00 0.00 0.00 51 1002.8
20260505070428 58 296 1.0 3.0 0.00 0.00 0.00 51 1002.6
20260505065932 58 295 1.0 3.0 0.00 0.00 0.00 50 1002.5
20260505065421 58 295 2.0 4.0 0.00 0.00 0.00 50 1002.4
20260505064929 58 282 2.0 5.0 0.00 0.00 0.00 50 1002.5
20260505064440 59 282 3.0 5.0 0.00 0.00 0.00 50 1002.5
20260505063927 59 294 2.0 4.0 0.00 0.00 0.00 50 1002.5
20260505063415 59 302 2.0 4.0 0.00 0.00 0.00 50 1002.5
20260505062926 59 281 2.0 4.0 0.00 0.00 0.00 50 1002.3
20260505062434 59 251 3.0 4.0 0.00 0.00 0.00 50 1002.4
20260505061921 59 287 2.0 4.0 0.00 0.00 0.00 50 1002.4
20260505061430 59 301 1.0 4.0 0.00 0.00 0.00 50 1002.3
20260505060916 59 290 3.0 4.0 0.00 0.00 0.00 50 1002.2
20260505060424 60 314 2.0 4.0 0.00 0.00 0.00 50 1002.1
20260505055931 60 301 2.0 4.0 0.00 0.00 0.00 51 1002.1
20260505055439 60 294 2.0 4.0 0.00 0.00 0.00 52 1002.1
20260505054927 60 267 1.0 4.0 0.00 0.00 0.00 54 1002.2
20260505054449 60 263 1.0 4.0 0.00 0.00 0.00 55 1002.1
20260505053915 60 257 2.0 4.0 0.00 0.00 0.00 57 1002.3
20260505053422 60 275 2.0 4.0 0.00 0.00 0.00 58 1002.5
20260505052932 60 248 1.0 4.0 0.00 0.00 0.00 60 1002.4
20260505052439 60 248 2.0 4.0 0.00 0.00 0.00 61 1002.2
20260505051926 60 244 0.0 2.0 0.00 0.00 0.00 62 1002.2
20260505051437 61 246 1.0 2.0 0.00 0.00 0.00 62 1002.1
20260505050948 61 249 0.0 2.0 0.00 0.00 0.00 61 1001.8
20260505050419 61 249 0.0 3.0 0.00 0.00 0.00 62 1001.9
20260505041418 61 209 0.0 0.0 0.00 0.00 0.00 75 1001.3
20260505040926 62 209 0.0 3.0 0.00 0.00 0.00 75 1001.2
20260505040433 62 209 1.0 3.0 0.00 0.00 0.00 75 1001.1
20260505035924 62 209 1.0 3.0 0.00 0.00 0.00 75 1001.2
20260505035428 62 210 0.0 4.0 0.00 0.00 0.00 75 1001.2
20260505034915 62 210 2.0 4.0 0.00 0.00 0.00 75 1001.3
20260505034429 62 207 0.0 3.0 0.00 0.00 0.00 75 1001.5
20260505033938 62 207 1.0 4.0 0.00 0.00 0.00 75 1001.4
20260505033445 62 208 1.0 4.0 0.00 0.00 0.00 75 1001.2
20260505032933 62 217 2.0 6.0 0.00 0.00 0.00 75 1001.2
20260505032421 62 221 2.0 6.0 0.00 0.00 0.00 75 1001.4
20260505031930 62 225 2.0 3.0 0.00 0.00 0.00 76 1001.3
20260505031422 61 213 1.0 3.0 0.00 0.00 0.00 76 1001.3
20260505030928 61 213 0.0 2.0 0.00 0.00 0.00 76 1001.3
20260505030417 62 213 1.0 2.0 0.00 0.00 0.00 75 1001.2
20260505025926 62 213 1.0 3.0 0.00 0.00 0.00 75 1001.0
20260505025437 62 213 1.0 3.0 0.00 0.00 0.00 75 1000.6
20260505024921 62 211 1.0 3.0 0.00 0.00 0.00 75 1000.4
20260505024430 62 211 2.0 4.0 0.00 0.00 0.00 75 1000.5
20260505023920 62 215 2.0 7.0 0.00 0.00 0.00 75 1000.6
20260505023428 62 202 3.0 7.0 0.00 0.00 0.00 75 1000.6
20260505022939 62 215 4.0 6.0 0.00 0.00 0.00 76 1000.4
20260505022450 62 206 4.0 6.0 0.00 0.00 0.00 76 1000.3
20260505021919 62 209 3.0 6.0 0.00 0.00 0.00 77 1000.1
20260505021428 62 202 3.0 5.0 0.00 0.00 0.00 77 1000.2
20260505020915 62 208 3.0 5.0 0.00 0.00 0.00 76 999.8
20260505020427 62 185 3.0 8.0 0.00 0.00 0.00 76 999.6
20260505015917 62 192 3.0 8.0 0.00 0.00 0.00 76 999.4
20260505015425 63 184 3.0 12.0 0.00 0.00 0.00 75 999.4
20260505014934 63 207 5.0 12.0 0.00 0.00 0.00 75 999.4
20260505014437 63 189 4.0 10.0 0.00 0.00 0.00 74 999.5
20260505013926 64 211 6.0 12.0 0.00 0.00 0.00 73 999.6
20260505013415 64 186 6.0 14.0 0.00 0.00 0.00 71 999.7
20260505012927 64 247 5.0 14.0 0.00 0.00 0.00 70 999.6
20260505012418 65 200 8.0 13.0 0.00 0.00 0.00 70 999.6
20260505011927 65 228 5.0 9.0 0.00 0.00 0.00 70 999.5
20260505011417 65 218 4.0 11.0 0.00 0.00 0.00 70 999.2
20260505010926 65 207 5.0 13.0 0.00 0.00 0.00 70 999.0
20260505010434 65 211 8.0 14.0 0.00 0.00 0.00 71 999.3
20260505005923 65 206 5.0 12.0 0.00 0.00 0.00 71 999.1
20260505005430 65 217 5.0 12.0 0.00 0.00 0.00 72 999.2
20260505004917 65 257 6.0 11.0 0.00 0.00 0.00 73 999.3
20260505004430 65 221 5.0 11.0 0.00 0.00 0.00 74 999.2
20260505003918 65 196 5.0 9.0 0.00 0.00 0.00 73 999.2
20260505003423 65 204 4.0 6.0 0.00 0.00 0.00 73 998.9
20260505002932 65 161 3.0 6.0 0.00 0.00 0.00 72 998.5
20260505002422 65 165 2.0 7.0 0.00 0.00 0.00 71 998.4
20260505001929 65 196 2.0 8.0 0.00 0.00 0.00 71 998.5
20260505001438 66 210 5.0 9.0 0.00 0.00 0.00 69 998.8
20260505000946 66 184 4.0 10.0 0.00 0.00 0.00 68 999.0
20260505000430 67 219 3.0 15.0 0.00 0.00 0.00 66 999.2
20260504235940 67 44 8.0 15.0 0.00 0.00 0.00 63 999.4
20260504235448 68 40 3.0 4.0 0.00 0.00 0.00 60 999.4
20260504234934 68 5 0.0 3.0 0.00 0.00 0.00 58 998.6
20260504234450 69 5 1.0 4.0 0.00 0.00 0.00 57 998.4
20260504233918 69 360 0.0 3.0 0.00 0.00 0.00 56 998.5
20260504233429 70 305 1.0 8.0 0.00 0.00 0.00 56 998.8
20260504232942 71 310 1.0 8.0 0.00 0.00 0.00 57 998.8
20260504232451 71 240 4.0 7.0 0.00 0.00 0.00 61 999.1
20260504231918 71 227 3.0 7.0 0.00 0.00 0.00 59 998.0
20260504231427 71 211 4.0 7.0 0.00 0.00 0.00 59 997.8
20260504230932 71 198 3.0 4.0 0.00 0.00 0.00 61 997.6
20260504230417 71 197 2.0 4.0 0.00 0.00 0.00 61 997.5
20260504225950 70 196 2.0 4.0 0.00 0.00 0.00 62 997.5
20260504225505 71 201 2.0 6.0 0.00 0.00 0.00 62 997.6
20260504224948 71 204 2.0 7.0 0.00 0.00 0.00 63 997.8
20260504224420 71 207 4.0 8.0 0.00 0.00 0.00 63 997.8
20260504223926 71 360 3.0 12.0 0.00 0.00 0.00 64 998.1
20260504223431 71 360 6.0 13.0 0.00 0.00 0.00 62 998.5
20260504222938 72 360 8.0 16.0 0.00 0.00 0.00 61 998.7
20260504222444 73 360 7.0 16.0 0.00 0.00 0.00 57 998.9
20260504221930 74 212 7.0 13.0 0.00 0.00 0.00 53 999.1
20260504221420 74 207 8.0 17.0 0.00 0.00 0.00 51 998.8
20260504220955 76 165 11.0 20.0 0.00 0.00 0.00 48 998.8
20260504220423 77 202 6.0 14.0 0.00 0.00 0.00 43 998.5
20260504215915 78 234 6.0 16.0 0.00 0.00 0.00 42 998.3
20260504215450 79 209 5.0 16.0 0.00 0.00 0.00 41 998.2
20260504214936 79 208 7.0 11.0 0.00 0.00 0.00 40 998.2
20260504214431 79 263 5.0 11.0 0.00 0.00 0.00 41 998.3
20260504213917 79 232 5.0 14.0 0.00 0.00 0.00 41 998.2
20260504213425 79 234 4.0 14.0 0.00 0.00 0.00 40 998.4
20260504212933 78 235 5.0 12.0 0.00 0.00 0.00 43 998.5
20260504212421 77 271 5.0 12.0 0.00 0.00 0.00 44 998.6
20260504211928 78 234 5.0 11.0 0.00 0.00 0.00 43 998.6
20260504211441 78 220 4.0 11.0 0.00 0.00 0.00 42 998.6
20260504210930 78 272 4.0 14.0 0.00 0.00 0.00 41 998.8
20260504210419 78 234 6.0 14.0 0.00 0.00 0.00 41 998.8
20260504205928 79 266 4.0 11.0 0.00 0.00 0.00 40 998.7
20260504205417 79 226 6.0 11.0 0.00 0.00 0.00 40 998.8
20260504204921 79 232 3.0 11.0 0.00 0.00 0.00 41 998.9
20260504204434 80 206 5.0 11.0 0.00 0.00 0.00 41 998.9
20260504203923 80 209 6.0 10.0 0.00 0.00 0.00 40 998.9
20260504203433 79 263 5.0 10.0 0.00 0.00 0.00 40 998.8
20260504202921 79 234 4.0 16.0 0.00 0.00 0.00 40 998.9
20260504202429 79 244 6.0 17.0 0.00 0.00 0.00 40 999.1
20260504201919 79 240 8.0 17.0 0.00 0.00 0.00 38 998.9
20260504201431 79 275 8.0 15.0 0.00 0.00 0.00 40 999.0
20260504200934 79 225 5.0 8.0 0.00 0.00 0.00 42 999.1
20260504200421 78 242 3.0 8.0 0.00 0.00 0.00 42 999.2
20260504200000 78 242 3.0 12.0 0.00 0.00 0.00 42 999.2
20260504195444 78 254 5.0 12.0 0.00 0.00 0.00 43 999.5
20260504194930 78 262 6.0 15.0 0.00 0.00 0.00 41 999.5
20260504194440 78 267 8.0 15.0 0.00 0.00 0.00 40 999.6
20260504193934 79 242 7.0 18.0 0.00 0.00 0.00 40 999.6
20260504193442 78 165 11.0 18.0 0.00 0.00 0.00 39 999.7
20260504192926 79 211 11.0 18.0 0.00 0.00 0.00 39 999.7
20260504192435 78 247 6.0 14.0 0.00 0.00 0.00 39 999.7
20260504191942 79 231 6.0 10.0 0.00 0.00 0.00 38 999.9
20260504191433 79 218 5.0 9.0 0.00 0.00 0.00 37 999.9
20260504190940 78 284 3.0 13.0 0.00 0.00 0.00 37 999.8
20260504190424 78 261 6.0 16.0 0.00 0.00 0.00 36 999.9
20260504185952 78 210 8.0 16.0 0.00 0.00 0.00 36 999.8
20260504185418 78 248 6.0 10.0 0.00 0.00 0.00 37 999.9
20260504184927 78 238 7.0 16.0 0.00 0.00 0.00 38 999.9
20260504184437 77 242 7.0 16.0 0.00 0.00 0.00 39 999.9
20260504183945 77 215 5.0 14.0 0.00 0.00 0.00 41 999.8
20260504183430 77 198 8.0 11.0 0.00 0.00 0.00 39 1000.0
20260504182922 77 228 6.0 11.0 0.00 0.00 0.00 38 1000.1
20260504182430 77 210 5.0 14.0 0.00 0.00 0.00 38 1000.2
20260504181915 77 261 6.0 14.0 0.00 0.00 0.00 38 1000.2
20260504181427 76 227 6.0 10.0 0.00 0.00 0.00 37 1000.4
20260504180915 76 231 6.0 10.0 0.00 0.00 0.00 39 1000.4
20260504180450 76 236 5.0 10.0 0.00 0.00 0.00 37 1000.5
20260504175919 76 215 3.0 10.0 0.00 0.00 0.00 40 1000.4
20260504175425 76 215 6.0 11.0 0.00 0.01 0.00 40 1000.5
20260504174914 76 211 3.0 9.0 0.00 0.01 0.00 44 1000.5
20260504174444 75 242 5.0 12.0 0.00 0.01 0.00 42 1000.5
20260504173931 75 234 5.0 15.0 0.00 0.01 0.00 45 1000.5